[[{"header":{"parameterUnit":"m.s-1","parameterCategory":1,"la1":30.2991,"la2":30.254,"lo1":-89.0895,"lo2":-89.0444,"dy":0.0017,"dx":0.0017,"nx":28,"ny":28,"refTime":"2025-03-23T03:00:00:Z","depth":0,"parameterNumber":2,"parameterNumberName":"U-component_of_WINDS"},"data":[0,0,0,0,0,0,0,0,0,0,0,0,0,0,0,0,0,0,0,0,0,0,0,0,0,0,0,0,0,0,0,0,0,0,0,0,0,0,0,0,0,0,0,0,0,0,0,0,0,0,0,0,0,0,0,0,0,0,0.5261,0.5262,0,0.5314,0.5315,0.5316,0.5323,0.5323,0.5322,0.5322,0.5376,0.5378,0.538,0,0,0,0,0,0,0,0,0,0,0,0,0,0.5164,0.5165,0.5261,0.5262,0.5262,0.5314,0.5315,0.5316,0.5323,0.5323,0.5322,0.5321,0.5375,0.5377,0.538,0,0,0,0,0,0,0,0,0,0,0,0,0,0.521,0.5166,0.5261,0.5272,0.5274,0.5314,0.5315,0.5316,0.5323,0.5323,0.5322,0.5321,0.5374,0.5377,0.538,0.5412,0,0,0.5389,0.539,0,0,0,0,0,0,0,0,0.5208,0.5214,0.527,0.5272,0.5273,0.5311,0.5301,0.5348,0.5324,0.5305,0.5322,0.5321,0.5355,0.5359,0.5371,0.5415,0.5417,0.5389,0.5391,0.5392,0.5393,0,0,0,0,0,0,0,0.5204,0.5212,0.5282,0.5271,0.5273,0.5274,0.528,0.531,0.5333,0.5306,0.5307,0.5313,0.5356,0.5368,0.5372,0.5418,0.5389,0.5391,0.5393,0.5394,0.549,0.5491,0,0,0,0,0,0,0.5199,0.5209,0.528,0.5284,0.5238,0.5277,0.5283,0.53,0.5333,0.5337,0.5314,0.5313,0.5364,0.5369,0.5374,0.5413,0.5392,0.5395,0.5396,0.5489,0.549,0.5491,0,0,0,0,0,0,0.5197,0.5206,0.5278,0.5247,0.5256,0.5279,0.5298,0.5301,0.5314,0.5339,0.5343,0.5322,0.5363,0.537,0.5403,0.5415,0.5396,0.5398,0.5488,0.549,0.5491,0.5493,0,0,0,0,0,0,0.5194,0.5205,0.5218,0.5247,0.5258,0.5306,0.5299,0.5303,0.5319,0.5319,0.5348,0.5352,0.5363,0.5398,0.5405,0.5419,0.5401,0.5487,0.5489,0.549,0.5492,0.5494,0.5496,0,0,0,0,0,0.5191,0.5216,0.5218,0.5227,0.5274,0.5307,0.5313,0.5326,0.532,0.5333,0.5348,0.5351,0.5413,0.5402,0.541,0.5424,0.5486,0.5488,0.549,0.5491,0.5493,0.5496,0,0,0,0,0,0,0.5188,0.522,0.5223,0.5259,0.528,0.5308,0.5325,0.5329,0.5352,0.5351,0.5366,0.5372,0.5404,0.5417,0.5404,0.5457,0.5449,0.5453,0.5447,0.545,0.5452,0.5447,0.5403,0,0,0,0,0,0.5192,0.5216,0.5243,0.5271,0.5282,0.5302,0.5316,0.5324,0.5347,0.5356,0.5374,0.5396,0.542,0.5436,0.5459,0.5494,0.55,0.5508,0.551,0.5511,0.5514,0.5532,0.5536,0.5497,0.5497,0.5497,0,0,0.5199,0.522,0.5234,0.5271,0.5289,0.5313,0.5309,0.5335,0.5353,0.536,0.5391,0.5405,0.543,0.5463,0.5479,0.5476,0.5526,0.5514,0.5515,0.5517,0.5534,0.5538,0.5541,0.5499,0.5498,0.5498,0,0,0.5225,0.5244,0.5269,0.5287,0.5313,0.5326,0.5332,0.5359,0.5369,0.5401,0.5406,0.5427,0.5469,0.5486,0.5501,0.5532,0.5535,0.554,0.555,0.5568,0.5571,0.5573,0.5584,0.5587,0.5542,0.5542,0.5542,0,0.5231,0.5268,0.5282,0.5307,0.5323,0.533,0.5356,0.5372,0.5405,0.5415,0.5411,0.5463,0.5481,0.5517,0.5525,0.5537,0.5543,0.5536,0.5569,0.5572,0.5575,0.5585,0.5589,0.5543,0.5543,0.5543,0.5543,0,0.5273,0.5299,0.5316,0.5347,0.5365,0.5391,0.5407,0.5424,0.543,0.5443,0.5475,0.5496,0.5524,0.5533,0.554,0.5571,0.5568,0.5566,0.5559,0.5579,0.5588,0.5592,0.5543,0.5543,0.5543,0.5543,0,0,0.5299,0.5337,0.5343,0.5357,0.5387,0.5406,0.5431,0.5459,0.5472,0.5494,0.5515,0.555,0.5549,0.5565,0.5573,0.5589,0.5611,0.5585,0.5586,0.5589,0.5645,0.5645,0.5649,0.5613,0.5614,0.5615,0.5643,0,0.5327,0.5373,0.5386,0.5424,0.5447,0.5454,0.5476,0.5496,0.5509,0.553,0.5544,0.5568,0.5565,0.5574,0.559,0.5605,0.5622,0.5603,0.5632,0.5633,0.5625,0.5655,0.5655,0.5681,0.5646,0.5647,0.5648,0,0.5367,0.5389,0.543,0.5456,0.5466,0.5485,0.5511,0.5531,0.5554,0.5562,0.5579,0.5586,0.5612,0.5604,0.5639,0.5625,0.5638,0.5647,0.5648,0.5651,0.5641,0.5657,0.5689,0.5692,0.5654,0.5653,0.5653,0,0.538,0.5421,0.545,0.5462,0.5493,0.5506,0.552,0.5542,0.5557,0.5579,0.5589,0.5614,0.5627,0.5646,0.5659,0.5652,0.5693,0.5686,0.5699,0.5699,0.5707,0.5706,0.5741,0.5717,0.5717,0.5717,0.5716,0,0.541,0.5434,0.5456,0.5474,0.5501,0.5516,0.5542,0.5555,0.5575,0.5595,0.5603,0.5621,0.5638,0.5659,0.5669,0.5696,0.5703,0.5709,0.5712,0.5708,0.5707,0.5716,0.5714,0.5718,0.5717,0.5717,0.5717,0,0.5429,0.5445,0.5477,0.5504,0.5511,0.553,0.5552,0.5569,0.5582,0.5608,0.5614,0.5634,0.5659,0.5674,0.5705,0.5712,0.5742,0.5744,0.5734,0.5735,0.5748,0.5746,0.5788,0.5794,0.5767,0.5767,0.5767,0,0.5447,0.5465,0.5494,0.5508,0.5522,0.5545,0.556,0.5574,0.559,0.5617,0.5631,0.5656,0.5677,0.5716,0.5733,0.5756,0.5759,0.5772,0.5762,0.5758,0.5758,0.5756,0.5758,0.5773,0.5774,0.5774,0.5774,0,0.5476,0.5483,0.5505,0.553,0.5548,0.5568,0.5588,0.5599,0.5617,0.5634,0.566,0.5676,0.5708,0.5732,0.5757,0.5771,0.5775,0.5777,0.5781,0.5777,0.577,0.5773,0.5738,0.5776,0.5775,0.5775,0.5775,0.5775,0.5494,0.5511,0.5533,0.5558,0.5574,0.5593,0.561,0.5625,0.5646,0.5673,0.5681,0.5707,0.5728,0.5762,0.5776,0.5796,0.5794,0.5801,0.5802,0.5804,0.5803,0.5768,0.5801,0.5801,0.5801,0.5801,0.5801,0,0.5523,0.5538,0.556,0.5588,0.5606,0.5609,0.5632,0.5647,0.567,0.569,0.571,0.5739,0.5762,0.5781,0.5805,0.5818,0.582,0.5824,0.5822,0.5825,0.5804,0.5798,0.5821,0.5821,0.5821,0.5821,0.5821,0.5821,0.554,0.5568,0.5578,0.5614,0.5628,0.5654,0.5666,0.5683,0.5699,0.573,0.575,0.5762,0.5781,0.5807,0.5828,0.5833,0.5841,0.5844,0.5849,0.5829,0.5827,0.5825,0.5819,0.5846,0.5846,0.5869,0.5869,0.5869]},{"header":{"parameterUnit":"m.s-1","parameterCategory":1,"la1":30.2991,"la2":30.254,"lo1":-89.0895,"lo2":-89.0444,"dy":0.0017,"dx":0.0017,"nx":28,"ny":28,"refTime":"2025-03-23T03:00:00:Z","depth":0,"parameterNumber":3,"parameterNumberName":"V-component_of_WINDS"},"data":[0,0,0,0,0,0,0,0,0,0,0,0,0,0,0,0,0,0,0,0,0,0,0,0,0,0,0,0,0,0,0,0,0,0,0,0,0,0,0,0,0,0,0,0,0,0,0,0,0,0,0,0,0,0,0,0,0,0,3.1927,3.1928,0,3.1998,3.1999,3.2,3.1973,3.1971,3.1969,3.1968,3.2037,3.204,3.2043,0,0,0,0,0,0,0,0,0,0,0,0,0,3.1762,3.1765,3.1927,3.1928,3.1929,3.1998,3.1999,3.2,3.1973,3.1971,3.1969,3.1967,3.2036,3.204,3.2044,0,0,0,0,0,0,0,0,0,0,0,0,0,3.1833,3.1766,3.1927,3.1923,3.1924,3.1998,3.1999,3.2,3.1973,3.1971,3.1968,3.1966,3.2034,3.2039,3.2044,3.2124,0,0,3.2059,3.2062,0,0,0,0,0,0,0,0,3.1829,3.1839,3.1923,3.1924,3.1924,3.1974,3.1966,3.2042,3.1974,3.1954,3.1968,3.1965,3.2018,3.2024,3.2042,3.2127,3.213,3.206,3.2063,3.2065,3.2067,0,0,0,0,0,0,0,3.1824,3.1836,3.1955,3.1924,3.1925,3.1917,3.1924,3.198,3.1999,3.1956,3.1954,3.1963,3.2017,3.2038,3.2044,3.2131,3.206,3.2064,3.2067,3.2069,3.2284,3.2286,0,0,0,0,0,0,3.182,3.1832,3.1953,3.1957,3.187,3.1922,3.193,3.1961,3.1998,3.2001,3.1965,3.1962,3.203,3.2038,3.2046,3.2141,3.2065,3.207,3.2073,3.2281,3.2284,3.2287,0,0,0,0,0,0,3.1816,3.1831,3.195,3.1894,3.1909,3.1927,3.1962,3.1963,3.1983,3.2005,3.2008,3.1983,3.2029,3.2039,3.2105,3.2143,3.2072,3.2077,3.2278,3.2282,3.2286,3.2333,0,0,0,0,0,0,3.1812,3.183,3.1862,3.1895,3.1912,3.2009,3.1964,3.1966,3.1993,3.1989,3.2022,3.2025,3.2028,3.2097,3.211,3.2149,3.2081,3.2274,3.228,3.2284,3.2328,3.2338,3.2347,0,0,0,0,0,3.1806,3.1871,3.1863,3.1878,3.1952,3.2011,3.202,3.2023,3.1996,3.2027,3.2041,3.2024,3.2137,3.2104,3.2118,3.2159,3.2272,3.2278,3.2284,3.2324,3.2336,3.2347,0,0,0,0,0,0,3.184,3.1876,3.1867,3.1946,3.1976,3.2007,3.2046,3.2036,3.2073,3.2068,3.2067,3.2075,3.2143,3.2158,3.212,3.2238,3.22,3.2209,3.2226,3.2238,3.2247,3.2242,3.2085,0,0,0,0,0,3.1857,3.1904,3.1932,3.1998,3.2014,3.2027,3.2053,3.2052,3.2083,3.2095,3.2114,3.2143,3.2184,3.2212,3.2252,3.233,3.2336,3.2365,3.2374,3.2382,3.239,3.2431,3.2444,3.2307,3.2307,3.2307,0,0,3.1892,3.1917,3.1947,3.2006,3.2029,3.2075,3.2038,3.2089,3.2123,3.2102,3.2166,3.218,3.2212,3.2285,3.2317,3.2299,3.2429,3.239,3.2395,3.2399,3.2438,3.2451,3.2463,3.2311,3.231,3.231,0,0,3.198,3.2004,3.2062,3.2086,3.2122,3.2131,3.2145,3.2177,3.2186,3.225,3.2235,3.2275,3.2347,3.2371,3.2392,3.2488,3.2473,3.2501,3.2549,3.259,3.26,3.261,3.2643,3.2655,3.2508,3.2508,3.2508,0,3.2019,3.209,3.2093,3.2145,3.2171,3.2155,3.2212,3.2235,3.2282,3.2299,3.2278,3.2369,3.2389,3.2466,3.249,3.2508,3.2522,3.2497,3.2599,3.2608,3.2617,3.2649,3.2662,3.2511,3.2511,3.2511,3.251,0,3.2135,3.2185,3.2227,3.2273,3.2304,3.2358,3.2368,3.2398,3.2394,3.2404,3.2469,3.2493,3.2537,3.2555,3.2552,3.2631,3.2619,3.2599,3.2561,3.2633,3.2663,3.2675,3.2516,3.2515,3.2514,3.2513,0,0,3.2247,3.2294,3.231,3.233,3.2369,3.2406,3.2459,3.2503,3.2529,3.2561,3.2604,3.2666,3.2647,3.2672,3.267,3.2706,3.2779,3.2681,3.2682,3.2698,3.2867,3.2882,3.2896,3.277,3.2772,3.2774,3.2864,0,3.2337,3.2432,3.2436,3.2521,3.2566,3.2552,3.2598,3.2625,3.2636,3.2674,3.2685,3.2729,3.2701,3.2716,3.275,3.2763,3.2813,3.2756,3.2809,3.2811,3.2801,3.2912,3.2928,3.3011,3.2876,3.2878,3.2879,0,3.2455,3.2492,3.2583,3.2615,3.2633,3.2675,3.2715,3.2753,3.2783,3.2788,3.2815,3.2808,3.2861,3.2822,3.2893,3.2855,3.2876,3.2885,3.2889,3.2893,3.2849,3.2918,3.3038,3.3051,3.2898,3.2896,3.2895,0,3.2526,3.2599,3.2663,3.2681,3.2719,3.2749,3.2766,3.2794,3.282,3.2854,3.2871,3.2911,3.2933,3.2963,3.2966,3.2938,3.3038,3.2999,3.3042,3.3042,3.3064,3.3062,3.3188,3.3079,3.3079,3.3078,3.3078,0,3.2627,3.2683,3.2696,3.2735,3.2796,3.2799,3.2859,3.2874,3.2898,3.2939,3.2928,3.2966,3.2969,3.3007,3.301,3.3068,3.3078,3.3082,3.3082,3.3083,3.3083,3.3097,3.3091,3.3082,3.3081,3.308,3.308,0,3.2717,3.2728,3.2796,3.2827,3.2836,3.288,3.2905,3.2942,3.2951,3.3002,3.3014,3.3029,3.3073,3.308,3.3132,3.3134,3.3203,3.3197,3.3193,3.3192,3.3235,3.3231,3.3374,3.3393,3.3272,3.3273,3.3274,0,3.278,3.2823,3.2858,3.2885,3.2904,3.2947,3.2974,3.2978,3.3006,3.3043,3.3075,3.3118,3.3153,3.3225,3.3239,3.3278,3.3273,3.332,3.3278,3.3278,3.3272,3.327,3.3274,3.3328,3.3329,3.333,3.3331,0,3.289,3.2894,3.2934,3.2975,3.3008,3.3041,3.3071,3.3094,3.3101,3.3133,3.3179,3.3206,3.3259,3.3302,3.3341,3.3356,3.3345,3.3344,3.3356,3.3357,3.3353,3.3355,3.3215,3.3341,3.334,3.3339,3.3339,3.3338,3.2968,3.3005,3.3036,3.3081,3.3104,3.3133,3.3169,3.3183,3.3222,3.3267,3.3266,3.3316,3.3344,3.3395,3.3413,3.3451,3.3436,3.3453,3.3457,3.3462,3.3466,3.3348,3.3458,3.3458,3.3458,3.3458,3.3457,0,3.3078,3.3097,3.3138,3.3182,3.3216,3.3204,3.3237,3.3266,3.3311,3.3338,3.3373,3.3425,3.3467,3.3484,3.3524,3.3552,3.3547,3.3562,3.356,3.3563,3.3478,3.3463,3.3565,3.3565,3.3565,3.3565,3.3565,3.3565,3.3139,3.32,3.3207,3.328,3.3298,3.3348,3.3368,3.3394,3.3416,3.3475,3.351,3.3522,3.3545,3.3586,3.3623,3.3627,3.3642,3.3659,3.3661,3.358,3.3569,3.3559,3.3545,3.3663,3.3663,3.3743,3.3744,3.3744]}]]